Notices

What's New in latest Release from April 7th, 2021:

- Updated Glossary, including Speed of Maximum Gust, and Total Hourly Precipitation

- Updated national and regional climate services offices contacts and prices information

- Addition of station inventory lists for 1981-2010, 1971-2000, and 1961-1990 Normals.

If you haven't already, please take our survey and provide feedback about our website: https://eccc.sondage-survey.ca/f/LanguageSelection.aspx?s=442ca660-fcf1-47c0-95a9-59707d6fd709

Hourly Data Report for November 17, 2019

SAINT JOHN A
NEW BRUNSWICK
Current Station Operator: NAVCAN

45°18'58.000" N
65°53'24.000" W
108.80 m
8104901
71609
YSJ

Download Data

Hourly Data (November 2019)
Hourly Data Report for November 17, 2019
TIME
LST
Temp Definition
°C
Dew Point Definition
°C
Rel Hum Definition
%
Precip. Amount Definition
mm

Wind Dir Definition
10's deg

Wind Spd Definition
km/h
Visibility Definition
km
Stn Press Definition
kPa
Hmdx Definition


Wind Chill Definition


Weather Definition


00:00 -6.9 -12.2 66   33 14 24.1 101.83   -13 LegendNANA
01:00 -7.1 -12.0 68   34 24 24.1 101.77   -15 LegendNANA
02:00 -7.3 -12.2 69   34 28 24.1 101.74   -16 Clear
03:00 -7.8 -12.0 72   35 18 24.1 101.78   -15 LegendNANA
04:00 -8.2 -11.8 75   35 19 24.1 101.76   -15 LegendNANA
05:00 -8.6 -12.0 77   35 9 24.1 101.80   -13 Clear
06:00 -9.1 -11.9 80   34 16 24.1 101.82   -16 LegendNANA
07:00 -8.9 -11.6 81   36 10 24.1 101.89   -14 LegendNANA
08:00 -8.6 -10.5 86   2 6 24.1 101.96   -12 Clear
09:00 -6.8 -10.3 76   36 14 24.1 101.97   -13 LegendNANA
10:00 -4.7 -10.5 64   3 16 24.1 101.94   -10 LegendNANA
11:00 -2.7 -10.4 56   1 12 24.1 101.93   -7 Mainly Clear
12:00 -0.8 -10.8 47   3 8 24.1 101.85   -4 LegendNANA
13:00 0.2 -10.9 43   35 9 24.1 101.77     LegendNANA
14:00 0.9 -11.0 41   34 8 24.1 101.68     Mainly Clear
15:00 1.2 -9.4 45   36 1 24.1 101.64     LegendNANA
16:00 1.1 -10.5 42   36 1 24.1 101.63     LegendNANA
17:00 -2.5 -6.9 72   0 1 24.1 101.62   -3 Mainly Clear
18:00 -3.2 -6.1 80   7 7 24.1 101.58   -6 LegendNANA
19:00 -4.3 -6.2 86   36 3 24.1 101.56   -6 LegendNANA
20:00 -4.7 -6.5 87   5 3 24.1 101.52   -6 Mainly Clear
21:00 -4.8 -6.2 90   7 4 24.1 101.47   -7 LegendNANA
22:00 -5.6 -6.7 92   5 3 24.1 101.43   -7 LegendNANA
23:00 -6.6 -7.7 92   3 4 24.1 101.35   -9 Mostly Cloudy

Notes on Data Quality.

Legend

  • E = Estimated
  • M = Missing
  • NA = Not Available*
  • [empty] = Indicates an unobserved value
Date modified: